Jefferson, NC

9:39 PM EDT on April 30, 2017 (GMT -0400)
Ashe County

Weather History for KGEV - February, 2012

Change the Weather History Date:

Sunday, February 19, 2012

  Actual Average Record
Temperature  
Mean Temperature 37 °F -  
Max Temperature 44 °F 47 °F 61 °F (1971)
Min Temperature 30 °F 27 °F -4 °F (2015)
Degree Days  
Heating Degree Days 28    
Moisture  
Dew Point 30 °F    
Average Humidity 86    
Maximum Humidity 100    
Minimum Humidity 39    
Precipitation  
Precipitation 0.28 in - - ()
Sea Level Pressure  
Sea Level Pressure 29.84 in    
Wind  
Wind Speed 3 mph (NNE)    
Max Wind Speed 12 mph    
Max Gust Speed 22 mph    
Visibility 5 miles    
Events Rain , Snow    
Averages and records for this station are not official NWS values.
T = Trace of Precipitation, MM = Missing Value Source: NWS Daily Summary

Daily Weather History Graph

Daily Weather History Graph

Search for Another Location

Airport or City:

Trip Planner

Search our weather history database for the weather conditions in past years. The results will help you decide how hot, cold, wet, or windy it might be!

Date:

Astronomy

Feb. 19, 2012 Rise Set
Actual Time 7:09 AM EST 6:10 PM EST
Civil Twilight 6:43 AM EST 6:36 PM EST
Nautical Twilight 6:13 AM EST 7:06 PM EST
Astronomical Twilight 5:43 AM EST 7:36 PM EST
Moon 5:26 AM EST (2/19) 4:12 PM EST (2/19)
Length of Visible Light 11h 53m
Length of Day
11h 00m
Waning Crescent, 5% of the Moon is Illuminated
Feb 19
Waning Crescent
Feb 21
New
Feb 29
First Quarter
Mar 8
Full
Mar 14
Last Quarter

Hourly Weather History & Observations

Time (EST) Temp. Windchill Dew Point Humidity Pressure Visibility Wind Dir Wind Speed Gust Speed Precip Events Conditions
12:15 AM 44.6 °F - 21.2 °F 39% 29.96 in 10.0 mi Calm Calm - N/A   Overcast
12:35 AM 44.6 °F - 21.2 °F 39% 29.95 in 10.0 mi Calm Calm - N/A   Overcast
12:55 AM 44.6 °F - 21.2 °F 39% 29.95 in 10.0 mi Calm Calm - N/A   Overcast
1:15 AM 44.6 °F 43.1 °F 21.2 °F 39% 29.94 in 10.0 mi North 3.5 mph - N/A   Drizzle
1:35 AM 42.8 °F - 23.0 °F 46% 29.93 in 10.0 mi Calm Calm - N/A   Drizzle
1:55 AM 42.8 °F - 24.8 °F 49% 29.92 in 10.0 mi Calm Calm - N/A   Drizzle
2:15 AM 42.8 °F - 26.6 °F 53% 29.91 in 10.0 mi Calm Calm - N/A   Light Drizzle
2:35 AM 42.8 °F - 26.6 °F 53% 29.91 in 10.0 mi Calm Calm - N/A Rain Rain
2:55 AM 41.0 °F 39.0 °F 26.6 °F 57% 29.89 in 10.0 mi NE 3.5 mph - N/A Rain Light Rain
3:15 AM 41.0 °F 39.0 °F 28.4 °F 61% 29.88 in 10.0 mi ENE 3.5 mph - N/A   Drizzle
3:35 AM 39.2 °F - 30.2 °F 70% 29.88 in 10.0 mi Calm Calm - N/A   Overcast
3:55 AM 39.2 °F 37.0 °F 32.0 °F 75% 29.87 in 10.0 mi NNW 3.5 mph - N/A   Light Drizzle
4:15 AM 39.2 °F - 30.2 °F 70% 29.87 in 10.0 mi Calm Calm - N/A Rain Light Rain
4:35 AM 37.4 °F 34.9 °F 32.0 °F 81% 29.86 in 7.0 mi North 3.5 mph - N/A Rain Light Rain
4:55 AM 37.4 °F 34.9 °F 32.0 °F 81% 29.86 in 7.0 mi NE 3.5 mph - N/A Rain Light Rain
5:15 AM 37.4 °F 34.9 °F 32.0 °F 81% 29.86 in 7.0 mi NNE 3.5 mph - N/A Rain Rain
5:35 AM 35.6 °F - 32.0 °F 87% 29.87 in 7.0 mi Calm Calm - N/A Rain Rain
5:55 AM 35.6 °F - 33.8 °F 93% 29.87 in 3.0 mi Calm Calm - N/A   Heavy Drizzle
6:15 AM 35.6 °F - 33.8 °F 93% 29.86 in 2.5 mi Calm Calm - N/A Rain Light Rain
6:35 AM 35.6 °F - 33.8 °F 93% 29.87 in 3.0 mi Calm Calm - N/A Rain Light Rain
6:55 AM 35.6 °F - 33.8 °F 93% 29.87 in 2.5 mi Calm Calm - N/A Rain Rain
7:15 AM 35.6 °F - 33.8 °F 93% 29.88 in 1.0 mi Calm Calm - N/A Rain Light Rain
7:35 AM 35.6 °F - 35.6 °F 100% 29.88 in 1.0 mi Calm Calm - N/A Rain Rain
7:55 AM 35.6 °F 27.5 °F 33.8 °F 93% 29.88 in 1.5 mi SE 11.5 mph 16.1 mph N/A Rain Rain
8:15 AM 33.8 °F 30.8 °F 33.8 °F 100% 29.88 in 2.0 mi ESE 3.5 mph 9.2 mph 0.03 in Rain Rain
8:35 AM 33.8 °F 30.8 °F 32.0 °F 93% 29.88 in 1.8 mi NE 3.5 mph - 0.04 in Snow Light Snow
8:55 AM 33.8 °F 30.8 °F 32.0 °F 93% 29.87 in 0.5 mi NE 3.5 mph - 0.04 in Rain Light Rain
9:15 AM 32.0 °F 28.7 °F 32.0 °F 100% 29.88 in 2.0 mi NE 3.5 mph - 0.01 in Rain Light Rain
9:35 AM 32.0 °F 27.5 °F 32.0 °F 100% 29.86 in 0.5 mi NE 4.6 mph - 0.02 in Snow Light Snow
10:15 AM 32.0 °F 28.7 °F 32.0 °F 100% 29.85 in 0.8 mi NE 3.5 mph - N/A Snow Light Snow
10:35 AM 32.0 °F 25.6 °F 32.0 °F 100% 29.84 in 1.2 mi East 6.9 mph - N/A Snow Light Snow
11:15 AM 32.0 °F 24.8 °F 32.0 °F 100% 29.82 in 0.8 mi East 8.1 mph - N/A Snow Light Snow
11:35 AM 32.0 °F 24.8 °F 32.0 °F 100% 29.81 in 1.5 mi East 8.1 mph - N/A Snow Light Snow
11:55 AM 32.0 °F 24.8 °F 32.0 °F 100% 29.80 in 1.0 mi East 8.1 mph - 0.01 in Snow Light Snow
12:15 PM 32.0 °F 24.8 °F 32.0 °F 100% 29.79 in 3.0 mi East 8.1 mph - N/A Snow Light Snow
1:55 PM 32.0 °F 24.8 °F 32.0 °F 100% 29.72 in 2.0 mi ENE 8.1 mph - N/A Snow Light Snow
2:15 PM 32.0 °F 25.6 °F 32.0 °F 100% 29.70 in 2.0 mi ENE 6.9 mph - N/A Snow Light Snow
2:35 PM 32.0 °F 25.6 °F 32.0 °F 100% 29.70 in 0.8 mi East 6.9 mph - 0.02 in Snow Snow
2:55 PM 32.0 °F 26.4 °F 32.0 °F 100% 29.70 in 0.8 mi East 5.8 mph - 0.06 in Snow Light Snow
3:35 PM 32.0 °F 27.5 °F 32.0 °F 100% 29.69 in 0.5 mi East 4.6 mph - 0.06 in Snow Light Snow
3:55 PM 32.0 °F - 32.0 °F 100% 29.69 in 1.2 mi Calm Calm - 0.06 in Snow Light Snow
4:15 PM 32.0 °F - 32.0 °F 100% 29.70 in 2.0 mi Calm Calm - N/A   Overcast
4:35 PM 32.0 °F 27.5 °F 32.0 °F 100% 29.70 in 4.0 mi NNE 4.6 mph - N/A   Overcast
4:55 PM 32.0 °F 26.4 °F 30.2 °F 93% 29.73 in 2.5 mi North 5.8 mph - N/A Snow Light Snow
5:15 PM 32.0 °F 28.7 °F 30.2 °F 93% 29.75 in 0.8 mi North 3.5 mph - 0.01 in Snow Light Snow
5:35 PM 32.0 °F 27.5 °F 30.2 °F 93% 29.75 in 0.2 mi NNE 4.6 mph - 0.04 in Snow Snow
5:55 PM 32.0 °F 28.7 °F 30.2 °F 93% 29.75 in 0.5 mi NNE 3.5 mph - 0.06 in Snow Snow
6:15 PM 32.0 °F 25.6 °F 30.2 °F 93% 29.76 in 1.2 mi North 6.9 mph - 0.01 in Snow Snow
6:35 PM 30.2 °F 23.4 °F 30.2 °F 100% 29.77 in 1.0 mi North 6.9 mph - 0.02 in Snow Snow
6:55 PM 30.2 °F 23.4 °F 30.2 °F 100% 29.79 in 1.5 mi North 6.9 mph - 0.03 in Snow Light Snow
7:15 PM 30.2 °F 24.3 °F 28.4 °F 93% 29.80 in 2.5 mi North 5.8 mph - N/A Snow Light Snow
7:35 PM 30.2 °F 25.4 °F 28.4 °F 93% 29.81 in 3.0 mi North 4.6 mph - N/A Snow Light Snow
8:15 PM 30.2 °F 25.4 °F 28.4 °F 93% 29.81 in 4.0 mi North 4.6 mph - N/A Snow Light Snow
8:35 PM 30.2 °F 24.3 °F 30.2 °F 100% 29.82 in 10.0 mi North 5.8 mph - N/A   Overcast
8:55 PM 32.0 °F 25.6 °F 30.2 °F 93% 29.83 in 10.0 mi North 6.9 mph - N/A   Overcast
9:15 PM 32.0 °F 26.4 °F 28.4 °F 87% 29.83 in 10.0 mi North 5.8 mph - N/A   Overcast
9:35 PM 32.0 °F 27.5 °F 28.4 °F 87% 29.84 in 10.0 mi North 4.6 mph - N/A   Overcast
9:55 PM 32.0 °F 27.5 °F 28.4 °F 87% 29.86 in 7.0 mi NNW 4.6 mph - N/A Snow Light Snow
10:15 PM 32.0 °F - 30.2 °F 93% 29.87 in 5.0 mi Calm Calm - N/A Snow Light Snow
10:35 PM 32.0 °F - 30.2 °F 93% 29.87 in 5.0 mi Calm Calm - N/A   Overcast
10:55 PM 32.0 °F 26.4 °F 30.2 °F 93% 29.88 in 7.0 mi NNW 5.8 mph - N/A Snow Light Snow
11:15 PM 32.0 °F - 28.4 °F 87% 29.88 in 7.0 mi Calm Calm - N/A Snow Light Snow
11:35 PM 32.0 °F 24.2 °F 28.4 °F 87% 29.88 in 10.0 mi NW 9.2 mph 19.6 mph N/A Snow Light Snow
11:55 PM 32.0 °F 23.6 °F 28.4 °F 87% 29.88 in 5.0 mi NW 10.4 mph 21.9 mph N/A Snow Light Snow